Voltar ao catálogo

COSMOS 1755

AtivoMilitarLEO
NORAD 16765·PAYLOAD·🇷🇺 Russia

Lançado Jun 6, 1986 de Plesetsk Cosmodrome

Loading…

Próximas Passagens (próximas 24 horas)

TLE

AtualizadoSource: Space-Track

Época: Sep 14, 2026, 08:46 UTC

1 16765U 86042H   26257.36590986 -.00000029  00000-0 -83400-4 0  9995
2 16765  74.0185  44.9533 0028948 159.5232 224.5950 12.54345638844158

Acompanhe COSMOS 1755 em tempo real com AllMySat

Download on the App Store